Location: Unspecified
(0.0000°N, 0.0000°E)
Time: 17:03:35
(UTC+00:00)

Envisat - Pass Details

Date: 25 September 2022
Orbit: 764 x 765 km, 98.2° (Epoch: 26 September)

Event Time Altitude Azimuth Distance (km) Brightness Sun altitude
Rises 04:08:45 0° 5° (N) 3,212 6.3 -25.8°
Reaches altitude 10° 04:11:04 10° 2° (N) 2,289 5.5 -25.2°
Enters shadow 04:15:19 55° 321° (NW) 916 3.1 -24.1°
